Weather History for LEPA - November, 2013

Change the Weather History Date:

Saturday, November 16, 2013

  Actual Average Record
Temperature  
Mean Temperature 52 °F -  
Max Temperature 59 °F 61 °F 73 °F (2006)
Min Temperature 45 °F 43 °F 33 °F (2004)
Degree Days  
Heating Degree Days 13    
Growing Degree Days 2 (Base 50)    
Moisture  
Dew Point 50 °F    
Average Humidity 88    
Maximum Humidity 94    
Minimum Humidity 77    
Precipitation  
Precipitation 0.08 in 0.06 in - ()
Sea Level Pressure  
Sea Level Pressure 29.93 in    
Wind  
Wind Speed 8 mph ()    
Max Wind Speed 20 mph    
Max Gust Speed 22 mph    
Visibility 6.3 miles    
Events Rain    
Averages and records for this station are not official NWS values.
T = Trace of Precipitation, MM = Missing Value Source: Averaged Metar Reports

Daily Weather History Graph

Daily Weather History Graph

Search for Another Location

Airport or City:

Trip Planner

Search our weather history database for the weather conditions in past years. The results will help you decide how hot, cold, wet, or windy it might be!

Date:

Astronomy

Nov. 16, 2013 Rise Set
Actual Time 7:34 AM CET 5:32 PM CET
Civil Twilight 7:05 AM CET 6:01 PM CET
Nautical Twilight 6:32 AM CET 6:34 PM CET
Astronomical Twilight 6:00 AM CET 7:06 PM CET
Moon 4:57 PM CET (11/16) 6:15 AM CET (11/16)
Length of Visible Light 10h 56m
Length of Day
9h 58m
Waxing Gibbous, 99% of the Moon is Illuminated
Nov 16
Waxing Gibbous
Nov 17
Full
Nov 25
Last Quarter
Dec 3
New
Dec 9
First Quarter

Hourly Weather History & Observations

Time (CET) Temp. Windchill Dew Point Humidity Pressure Visibility Wind Dir Wind Speed Gust Speed Precip Events Conditions
12:00 AM 48.2 °F - 44.6 °F 87% 30.04 in 6.2 mi NE 8.1 mph - N/A Rain Light Rain
12:19 AM 48.2 °F - 44.6 °F 87% 30.01 in 5.6 mi NE 16.1 mph - N/A Rain Rain
12:30 AM 48.2 °F - 44.6 °F 87% 30.01 in 5.6 mi NE 19.6 mph - N/A Rain Rain
1:00 AM 46 °F - 44 °F 92% 30.01 in 6 mi NE 17.3 mph - - Rain Rain
1:00 AM 46.4 °F 39.2 °F 42.8 °F 87% 30.01 in 5.6 mi NE 18.4 mph - N/A Rain Rain
1:30 AM 46.4 °F 39.8 °F 42.8 °F 87% 29.98 in 5.6 mi North 16.1 mph - N/A Rain Rain
2:00 AM 46.4 °F 41.9 °F 42.8 °F 87% 29.95 in 6.2 mi North 9.2 mph - N/A   Drizzle
2:30 AM 48.2 °F - 42.8 °F 82% 29.95 in 6.2 mi North 8.1 mph - N/A   Scattered Clouds
3:00 AM 48.2 °F - 44.6 °F 87% 29.95 in 6.2 mi NNW 5.8 mph - N/A   Scattered Clouds
3:30 AM 50.0 °F - 44.6 °F 82% 29.92 in 6.2 mi NNW 8.1 mph - N/A   Scattered Clouds
4:00 AM 50.0 °F - 46.4 °F 87% 29.89 in 6.2 mi NNE 12.7 mph - N/A Rain Rain
4:30 AM 51.8 °F - 48.2 °F 88% 29.89 in 5.6 mi NE 12.7 mph - N/A Rain Rain
5:00 AM 51.8 °F - 48.2 °F 88% 29.89 in 5.6 mi NW 4.6 mph - N/A Rain Rain
5:30 AM 50.0 °F - 48.2 °F 94% 29.86 in 5.6 mi Variable 1.2 mph - N/A Rain Rain
6:00 AM 50.0 °F - 48.2 °F 94% 29.83 in 5.6 mi NNW 6.9 mph - N/A Rain Rain
6:30 AM 51.8 °F - 50.0 °F 94% 29.83 in 5.6 mi ENE 6.9 mph - N/A Rain Rain
6:54 AM 53.6 °F - 50.0 °F 88% 29.83 in 6.2 mi Calm Calm - N/A   Scattered Clouds
7:00 AM 52 °F - 50 °F 90% 29.83 in 9 mi ENE 2.3 mph - - Rain Light Rain
7:00 AM 53.6 °F - 50.0 °F 88% 29.80 in 6.2 mi Calm Calm - N/A   Scattered Clouds
7:30 AM 53.6 °F - 51.8 °F 94% 29.83 in 6.2 mi NE 5.8 mph - N/A   Scattered Clouds
8:00 AM 53.6 °F - 50.0 °F 88% 29.86 in 6.2 mi SSE 5.8 mph - N/A   Partly Cloudy
8:30 AM 51.8 °F - 50.0 °F 94% 29.86 in 6.2 mi ESE 6.9 mph - N/A   Scattered Clouds
9:00 AM 53.6 °F - 51.8 °F 94% 29.89 in 6.2 mi East 4.6 mph - N/A   Mostly Cloudy
9:30 AM 55.4 °F - 53.6 °F 94% 29.92 in 6.2 mi Calm Calm - N/A   Scattered Clouds
10:00 AM 59.0 °F - 53.6 °F 82% 29.92 in 6.2 mi SSE 6.9 mph - N/A   Scattered Clouds
10:30 AM 59.0 °F - 51.8 °F 77% 29.92 in 6.2 mi SE 9.2 mph - N/A   Scattered Clouds
10:35 AM 59.0 °F - 51.8 °F 77% 29.92 in 6.2 mi SE 8.1 mph - N/A   Mostly Cloudy
11:00 AM 59.0 °F - 51.8 °F 77% 29.92 in 6.2 mi SE 10.4 mph 21.9 mph N/A Rain Light Rain
11:30 AM 57.2 °F - 50.0 °F 77% 29.95 in 6.2 mi ESE 9.2 mph - N/A Rain Light Rain
12:00 PM 55.4 °F - 50.0 °F 82% 29.95 in 6.2 mi East 8.1 mph - N/A Rain Light Rain
12:30 PM 55.4 °F - 50.0 °F 82% 29.95 in 6.2 mi ESE 11.5 mph - N/A Rain Rain
1:00 PM 55 °F - 52 °F 84% 29.96 in 12 mi East 9.2 mph - - Rain Light Rain
1:00 PM 55.4 °F - 51.8 °F 88% 29.95 in 6.2 mi East 6.9 mph - N/A Rain Light Rain
1:30 PM 55.4 °F - 51.8 °F 88% 29.95 in 6.2 mi ENE 5.8 mph - N/A Rain Light Rain
2:00 PM 55.4 °F - 51.8 °F 88% 29.92 in 6.2 mi NE 10.4 mph - N/A   Mostly Cloudy
2:30 PM 55.4 °F - 51.8 °F 88% 29.92 in 6.2 mi ENE 9.2 mph - N/A   Mostly Cloudy
3:00 PM 55.4 °F - 51.8 °F 88% 29.92 in 6.2 mi ENE 10.4 mph - N/A   Mostly Cloudy
3:30 PM 57.2 °F - 51.8 °F 82% 29.92 in 6.2 mi ENE 9.2 mph - N/A   Mostly Cloudy
4:00 PM 55.4 °F - 53.6 °F 94% 29.92 in 6.2 mi ENE 8.1 mph - N/A   Mostly Cloudy
4:30 PM 55.4 °F - 53.6 °F 94% 29.92 in 6.2 mi ENE 8.1 mph - N/A   Mostly Cloudy
5:00 PM 55.4 °F - 53.6 °F 94% 29.92 in 6.2 mi ENE 6.9 mph - N/A   Mostly Cloudy
5:30 PM 55.4 °F - 53.6 °F 94% 29.92 in 6.2 mi ENE 6.9 mph - N/A   Mostly Cloudy
6:00 PM 55.4 °F - 51.8 °F 88% 29.92 in 6.2 mi ENE 8.1 mph - N/A   Mostly Cloudy
6:30 PM 55.4 °F - 51.8 °F 88% 29.92 in 6.2 mi ENE 9.2 mph - N/A   Mostly Cloudy
7:00 PM 55 °F - 52 °F 85% 29.95 in 9 mi East 6.9 mph - -   Partly Cloudy
7:00 PM 55.4 °F - 51.8 °F 88% 29.95 in 6.2 mi ENE 6.9 mph - N/A   Mostly Cloudy
7:30 PM 55.4 °F - 51.8 °F 88% 29.95 in 6.2 mi ENE 6.9 mph - N/A   Mostly Cloudy
8:00 PM 55.4 °F - 51.8 °F 88% 29.95 in 6.2 mi ENE 8.1 mph - N/A Rain Rain
8:30 PM 55.4 °F - 51.8 °F 88% 29.95 in 6.2 mi SE 2.3 mph - N/A Rain Rain
9:00 PM 53.6 °F - 51.8 °F 94% 29.95 in 6.2 mi NE 8.1 mph - N/A Rain Rain
9:30 PM 53.6 °F - 51.8 °F 94% 29.95 in 6.2 mi Variable 2.3 mph - N/A Rain Rain
10:00 PM 53.6 °F - 51.8 °F 94% 29.98 in 6.2 mi ENE 4.6 mph - N/A Rain Rain
10:30 PM 53.6 °F - 51.8 °F 94% 29.95 in 6.2 mi ENE 1.2 mph - N/A Rain Rain
11:00 PM 53.6 °F - 51.8 °F 94% 29.95 in 6.2 mi ENE 5.8 mph - N/A Rain Light Rain
11:30 PM 53.6 °F - 51.8 °F 94% 29.95 in 6.2 mi East 3.5 mph - N/A   Mostly Cloudy